Regional Weather Roundup
Issued by NWS New Orleans/Baton Rouge, LA

Home | Current Version | Previous Version | Graphics & Text | Print | Product List | Glossary On
Versions: 1 2 3 4 5 6 7 8 9 10 11 12 13 14 15 16 17 18 19 20 21 22 23 24 25 26 27 28 29 30 31 32 33 34 35 36 37 38 39 40 41 42 43 44 45 46 47 48 49 50
491
ASUS44 KLIX 240810
RWRLIX
NEW ORLEANS REGIONAL WEATHER ROUNDUP
NATIONAL WEATHER SERVICE NEW ORLEANS LA
300 AM CDT THU APR 24 2014

NOTE: "FAIR" INDICATES FEW OR NO CLOUDS BELOW 12,000 FEET WITH NO
      SIGNIFICANT WEATHER AND/OR OBSTRUCTIONS TO VISIBILITY.
      SKY/WX - SKY CONDITION AND SIGNIFICANT WEATHER.
      TMP - AIR TEMPERATURE.     DP    - DEWPOINT TEMPERATURE.
      RH  - RELATIVE HUMIDITY.   PRES  - PRESSURE.
      HI  - HEAT INDEX.          WCI   - WIND CHILL INDEX.

*  THESE STATIONS ARE NOT NWS OR FAA STATIONS AND ARE NOT UNDER
   NWS QUALITY CONTROL.

LAZ038-040-048-061>063-065>067-069-240900-
SOUTHEAST LOUISIANA

CITY           SKY/WX    TMP DP  RH WIND       PRES   REMARKS
N.O. AUDUBON   NOT AVBL
N.O. INTL ARPT CLEAR     67  64  90 SW5       29.91F
N.O. LAKEFRONT CLEAR     68  65  90 SW3       29.92F
N.O. DOWNTOWN*   N/A     70  63  78 S3        29.92F
SLIDELL        CLEAR     60  57  89 CALM      29.91F
BATON ROUGE    CLEAR     64  60  87 CALM      29.90F
BOOTHVILLE     CLEAR     70  64  81 SW9       29.93S
BELLE CHASSE   FOG       63  59  88 CALM      29.91F VSB 1/2
BOGALUSA*        N/A     60  57  87 CALM      29.93S
GALLIANO*      SUNNY     64  61  91 CALM      29.92S FOG
NEW ROADS*       N/A     63  61  95 CALM      29.90F FOG
GONZALES*        N/A     61  61 100 CALM      29.90F FOG
HAMMOND*       CLEAR     63  59  88 CALM      29.93S
HOUMA*         FOG       61  59  93 CALM      29.91F VSB 3/4
PORT FOURCHON* MOSUNNY   70  66  88 SW5       29.94S

$$

MSZ070-080>082-240900-
SOUTHERN MISSISSIPPI

CITY           SKY/WX    TMP DP  RH WIND       PRES   REMARKS
MCCOMB         CLEAR     64  60  87 W5        29.91F
GULFPORT       CLEAR     65  61  87 CALM      29.91S FOG
BILOXI         CLEAR     66  66 100 W2        29.92R
PASCAGOULA     PTCLDY    59  59 100 CALM      29.92R FOG

$$

COASTAL OBSERVATIONS
LAKE AND NEARSHORE STATIONS

STATION/POSITION TIME  TEMP    WIND        PRES    WAVE
                       AIR SEA DIR/SP/G            HT/PER
                 (UTC) (F)     (DEG/KT/KT) (MB)    (FT/S)
PASCAGOULA       0800   70     230/  6/  7 1012.2
WAVELAND YACHT   0800   67 76  210/  1/  2 1012.2
GRAND ISLE       0800   70 72  230/  4/  5 1013.7
SOUTHWEST PASS   0800   66 60  230/  9/ 10 1013.9
NEW CANAL        0800   69 71  220/  4/  5 1013.4
SHELL BEACH      0800   69 69  210/  3/  5 1012.9

OFFSHORE STATIONS

STATION/POSITION TIME  TEMP    WIND        PRES    WAVE
                       AIR SEA DIR/SP/G            HT/PER
                 (UTC) (F)     (DEG/KT/KT) (MB)    (FT/S)
64 S DAUPHIN ISL 0747   69 71  220/  6/  6 1013.5

$$




USA.gov is the U.S. government's official web portal to all federal, state and local government web resources and services.